Tracking 27079 objects as of 23-Mar-2023
HD Live streaming from Space Station
objects crossing your sky now

COSMOS 970 DEB

Track COSMOS 970 DEB now!
10-day predictions


NORAD ID: 10885
Int'l Code: 1977-121AG
Perigee: 960.1 km
Apogee: 1,069.4 km
Inclination: 65.8 °
Period: 105.3 minutes
Semi major axis: 7385 km
RCS: 0.0086 m2 (small)
Launch date: December 21, 1977
Source: Commonwealth of Independent States (former USSR) (CIS)
Launch site: TYURATAM MISSILE AND SPACE COMPLEX (TTMTR)

Note: This is SATELLITE DEBRIS
Your satellite tracking list
Your tracking list is empty




NASA's NSSDC Master Catalog

Two Line Element Set (TLE):
1 10885U 77121AG  23081.04035008  .00001003  00000-0  12535-2 0  9996
2 10885  65.7912  80.4142 0074018 244.7563 140.7915 13.67767536245812
Source of the keplerian elements: AFSPC